CDT,Max TemperatureF,Mean TemperatureF,Min TemperatureF,Max Dew PointF,MeanDew PointF,Min DewpointF,Max Humidity, Mean Humidity, Min Humidity, Max Sea Level PressureIn, Mean Sea Level PressureIn, Min Sea Level PressureIn, Max VisibilityMiles, Mean VisibilityMiles, Min VisibilityMiles, Max Wind SpeedMPH, Mean Wind SpeedMPH, Max Gust SpeedMPH,PrecipitationIn, CloudCover, Events, WindDirDegrees
2012-10-1,75,62,49,48,43,39,79,52,29,29.99,29.93,29.89,10,10,10,21,7,31,0.00,0,,321
2012-10-2,73,57,41,39,34,27,77,45,19,30.00,29.94,29.87,10,10,10,7,5,,0.00,0,,277
2012-10-3,80,62,44,40,35,29,79,39,15,29.91,29.87,29.79,10,10,10,20,8,28,0.00,0,,164
2012-10-4,61,54,45,43,35,30,76,53,36,30.30,30.19,29.93,10,10,10,22,13,30,0.00,2,Thunderstorm,322
2012-10-5,51,42,34,32,27,21,83,57,33,30.35,30.29,30.24,10,10,10,13,6,17,0.00,1,,308
2012-10-6,48,38,28,26,23,20,73,55,38,30.37,30.32,30.28,10,10,10,15,6,22,0.00,2,,311
2012-10-7,57,42,27,30,24,22,81,52,26,30.30,30.19,30.04,10,10,10,17,6,24,0.00,0,,233
2012-10-8,71,54,39,33,31,28,74,46,21,30.04,29.91,29.80,10,10,10,22,12,30,0.00,0,,186
2012-10-9,56,48,38,43,31,22,63,48,29,30.15,29.95,29.80,10,10,10,17,8,28,0.00,1,,302
2012-10-10,64,48,32,28,26,24,72,48,24,30.24,30.15,30.06,10,10,10,14,5,18,0.00,0,,227
2012-10-11,65,55,45,38,32,25,61,45,31,30.34,30.11,30.02,10,10,10,20,11,25,0.03,2,,119
2012-10-12,55,45,35,41,24,18,62,41,30,30.35,30.28,30.11,10,10,10,16,10,23,0.00,5,Rain,90
2012-10-13,76,64,52,66,60,48,98,87,68,29.97,29.77,29.57,10,7,0,20,9,18,0.57,7,Fog-Rain-Thunderstorm,172
2012-10-14,66,58,51,61,43,36,97,60,33,29.99,29.87,29.60,10,10,2,28,11,37,0.52,1,Rain-Thunderstorm,298
2012-10-15,74,60,45,46,41,37,77,52,31,29.99,29.92,29.80,10,10,10,12,5,,0.00,0,,146
2012-10-16,79,68,56,49,44,40,75,41,24,29.59,29.50,29.42,10,10,10,16,10,20,0.00,0,,239
2012-10-17,66,58,50,53,38,21,92,48,26,29.60,29.49,29.34,10,10,7,32,14,44,0.04,4,Rain,273
2012-10-18,51,48,44,42,32,22,90,57,33,29.63,29.56,29.52,10,9,5,36,20,47,0.03,6,Rain,284
2012-10-19,48,46,43,42,41,40,91,83,75,29.83,29.74,29.61,10,10,5,32,20,44,0.00,8,Rain,315
2012-10-20,67,52,36,45,40,35,98,72,34,29.83,29.78,29.69,10,9,0,14,4,20,0.00,0,Fog,131
2012-10-21,81,64,48,65,53,42,90,71,48,29.79,29.75,29.71,10,10,3,17,9,24,0.17,2,Rain-Thunderstorm,133
2012-10-22,68,62,55,66,62,55,97,93,85,29.79,29.77,29.74,10,5,1,10,6,,0.16,7,Rain-Thunderstorm,360
2012-10-23,81,68,54,64,58,54,99,85,48,29.80,29.73,29.64,10,6,0,18,6,24,0.00,5,Fog,199
2012-10-24,63,56,48,61,56,48,99,96,90,29.77,29.74,29.71,10,3,0,14,5,20,0.00,7,Fog-Rain-Thunderstorm,338
2012-10-25,48,42,36,47,35,27,97,83,67,30.33,30.01,29.65,10,8,2,26,17,34,0.37,8,Rain-Thunderstorm,329
2012-10-26,44,36,29,30,26,25,88,69,50,30.51,30.43,30.32,10,10,10,12,6,16,0.00,5,,314
2012-10-27,45,36,28,29,25,23,81,65,47,30.41,30.34,30.26,10,10,7,6,2,,0.00,1,,132
2012-10-28,52,42,33,31,29,27,81,61,42,30.33,30.27,30.21,10,10,10,13,6,16,0.00,4,,145
2012-10-29,58,50,41,32,29,28,67,51,34,30.24,30.17,30.09,10,10,10,21,11,28,0.00,3,,139
2012-10-30,55,46,36,32,28,24,80,55,33,30.11,30.06,30.03,10,10,7,14,8,,0.00,3,,87
2012-10-31,60,47,34,35,30,25,82,54,34,30.07,30.03,29.98,10,10,2,6,2,,0.00,0,,182